This demonstration page uses our WeatherBlox Daily Observations layout. Learn more.

Left ArrowRight Arrow

39.01783, -85.05884

Hourly Observations for February 13, 2020

Temp ( °F °C ) Dew Point ( °F °C ) Humidity (%) Winds ( mph kmh ) Pressure ( in mb ) Visibility ( mi km ) Precip ( " mm )
12:52 am 00:52 Cloudy 35 1.7 32 0 89 89 NNE 8 13 29.68 1005 8 12.87472 0 0
1:52 am 01:52 Cloudy 35 1.7 33 0.6 93 93 N 6 9 29.72 1006 8 12.87472 0 0
2:49 am 02:49 Cloudy with Mist and Fog 36 2 34 1 93 93 NE 7 11 29.72 1006 2 3.21868 0 0
2:52 am 02:52 Cloudy with Mist and Fog 35 1.7 33 0.6 93 93 NNE 5 7 29.7 1006 2 3.21868 0 0
3:52 am 03:52 Cloudy with Mist and Fog 35 1.7 33 0.6 93 93 Calm 29.7 1006 1.25 2.011675 0 0
4:32 am 04:32 Cloudy with Drizzle 35 1.7 33 0.6 93 93 NNW 8 13 29.73 1007 0.5 0.80467 0.001 0.001
4:52 am 04:52 Cloudy with Drizzle 35 1.7 33 0.6 93 93 NW 9 15 29.72 1006 0.5 0.80467 0.001 0.001
5:43 am 05:43 Cloudy with Rain 34 1.1 32 0 92 92 NW 8 13 29.78 1009 2 3.21868 0.01 0.254
5:52 am 05:52 Cloudy with Light Rain 34 1.1 32 0 92 92 NNW 8 13 29.75 1008 2 3.21868 0.01 0.254
6:03 am 06:03 Cloudy with Light Rain 34 1.1 32 0 92 92 NW 9 15 29.79 1009 4 6.43736 0.01 0.254
6:36 am 06:36 Cloudy with Mist and Fog 34 1.1 32 0 92 92 NW 10 17 29.81 1010 5 8.0467 0.04 1.016
6:52 am 06:52 Cloudy with Light Rain 34 1.1 32 0 92 92 NNW 9 15 29.78 1009 5 8.0467 0.05 1.27
7:39 am 07:39 Cloudy with Light Snow 33 0.6 31 -0.6 92 92 NNW 12 19 29.83 1010 1.5 2.41401 0.001 0.001
7:52 am 07:52 Cloudy with Light Snow 33 0.6 31 -0.6 92 92 NNW 10 17 29.8 1009 1.5 2.41401 0.001 0.001
8:15 am 08:15 Cloudy with Light Snow 33 0.6 31 -0.6 92 92 NNW 12 19 29.85 1011 5 8.0467 0.01 0.254
8:52 am 08:52 Cloudy 33 0.6 30 -1.1 89 89 NNW 14 22 29.85 1011 7 11.26538 0.01 0.254
9:41 am 09:41 Cloudy with Light Snow 34 1.1 30 -1.1 85 85 NW 13 20 29.93 1014 4 6.43736 0.001 0.001
9:52 am 09:52 Cloudy with Light Snow 34 1.1 31 -0.6 89 89 NW 12 19 29.91 1013 5 8.0467 0.001 0.001
10:07 am 10:07 Cloudy with Light Snow 34 1.1 31 -0.6 89 89 NW 9 15 29.94 1014 3 4.82802 0.001 0.001
10:23 am 10:23 Cloudy with Mist and Fog 34 1.1 31 -0.6 89 89 NW 12 19 29.95 1014 5 8.0467 0.001 0.001
10:52 am 10:52 Cloudy 34 1.1 31 -0.6 89 89 NW 12 19 29.93 1014 7 11.26538 0.001 0.001
11:23 am 11:23 Cloudy 36 2.2 31 -0.6 82 82 NW 15 24 29.98 1015 8 12.87472 0 0
11:52 am 11:52 Cloudy 35 1.7 30 -1.1 82 82 WNW 10 17 29.97 1015 8 12.87472 0 0
12:25 pm 12:25 Cloudy 36 2.2 29 -1.7 76 76 NW 10 17 30.01 1016 10 16.0934 0 0
12:52 pm 12:52 Cloudy 36 2.2 30 -1.1 79 79 W 15 24 29.99 1016 9 14.48406 0 0
1:52 pm 13:52 Mostly Cloudy 37 2.8 30 -1.1 76 76 W 14 22 30 1016 9 14.48406 0 0
2:52 pm 14:52 Cloudy 37 2.8 30 -1.1 76 76 W 14 22 30.03 1017 10 16.0934 0 0
3:52 pm 15:52 Cloudy 37 2.8 30 -1.1 76 76 W 14 22 30.05 1018 10 16.0934 0 0
4:27 pm 16:27 Cloudy with Light Rain 33 0.6 29 -1.7 85 85 WNW 21 33 30.11 1020 6 9.65604 0.001 0.001
4:52 pm 16:52 Cloudy 32 0 28 -2.2 85 85 WNW 18 30 30.11 1020 7 11.26538 0.001 0.001
5:52 pm 17:52 Cloudy 30 -1.1 23 -5 75 75 WNW 21 33 30.16 1021 10 16.0934 0 0
6:09 pm 18:09 Cloudy 30 -1.1 22 -5.6 72 72 WNW 17 28 30.2 1023 10 16.0934 0 0
6:52 pm 18:52 Cloudy 28 -2.2 20 -6.7 72 72 W 17 28 30.2 1023 10 16.0934 0 0
7:52 pm 19:52 Cloudy 26 -3.3 17 -8.3 69 69 NW 20 31 30.23 1024 10 16.0934 0 0
8:52 pm 20:52 Cloudy 24 -4.4 17 -8.3 75 75 WNW 15 24 30.26 1025 10 16.0934 0 0
9:52 pm 21:52 Cloudy 23 -5 15 -9.4 72 72 WNW 18 30 30.29 1026 10 16.0934 0 0
10:52 pm 22:52 Cloudy with Light Snow 21 -6.1 15 -9.4 78 78 WNW 15 24 30.32 1027 3 4.82802 0.001 0.001
11:01 pm 23:01 Cloudy with Light Snow 21 -6.1 15 -9.4 78 78 NW 16 26 30.37 1028 2.5 4.02335 0.001 0.001
11:17 pm 23:17 Cloudy with Light Snow 21 -6.1 13 -10.6 71 71 WNW 17 28 30.38 1029 5 8.0467 0.001 0.001
11:52 pm 23:52 Cloudy with Light Snow 20 -6.7 11 -11.7 68 68 WNW 16 26 30.35 1028 8 12.87472 0.001 0.001

Powered by AerisWeather